Location: Aalen
(48.8330°N, 10.1000°E)
Time: 05:02:34
(UTC+02:00)

Transit 2A - Pass Details

Date: 02 August 2021
Orbit: 594 x 964 km, 66.7° (Epoch: 27 September)

Event Time Altitude Azimuth Distance (km) Brightness Sun altitude
Rises 17:03:28 0° 315° (NW) 3,273 9.6 36.4°
Reaches altitude 10° 17:06:10 10° 302° (WNW) 2,404 9.2 35.9°
Maximum altitude 17:10:35 25° 249° (WSW) 1,685 10.0 35.2°
Drops below altitude 10° 17:15:17 10° 198° (SSW) 2,576 9.2 34.5°
Sets 17:18:18 0° 185° (S) 3,560 9.6 34.0°
